[[{"header":{"parameterUnit":"m.s-1","parameterCategory":1,"la1":30.2991,"la2":30.254,"lo1":-89.0895,"lo2":-89.0444,"dy":0.0017,"dx":0.0017,"nx":28,"ny":28,"refTime":"2024-06-20T09:00:00:Z","depth":0,"parameterNumber":2,"parameterNumberName":"U-component_of_WINDS"},"data":[0,0,0,0,0,0,0,0,0,0,0,0,0,0,0,0,0,0,0,0,0,0,0,0,0,0,0,0,0,0,0,0,0,0,0,0,0,0,0,0,0,0,0,0,0,0,0,0,0,0,0,0,0,0,0,0,0,0,-7.6044,-7.6044,0,-7.6076,-7.6077,-7.6077,-7.5907,-7.5902,-7.5897,-7.5893,-7.5927,-7.5933,-7.5938,0,0,0,0,0,0,0,0,0,0,0,0,0,-7.5836,-7.5841,-7.6044,-7.6044,-7.6045,-7.6076,-7.6077,-7.6077,-7.5908,-7.5902,-7.5896,-7.5891,-7.5926,-7.5932,-7.5939,0,0,0,0,0,0,0,0,0,0,0,0,0,-7.5904,-7.5842,-7.6044,-7.5964,-7.5957,-7.6076,-7.6077,-7.6077,-7.5909,-7.5902,-7.5895,-7.5888,-7.5923,-7.5931,-7.594,-7.6137,0,0,-7.5965,-7.5968,0,0,0,0,0,0,0,0,-7.59,-7.5911,-7.5975,-7.597,-7.5962,-7.598,-7.6016,-7.6097,-7.5911,-7.5928,-7.5893,-7.5884,-7.5951,-7.5956,-7.5979,-7.6139,-7.614,-7.5965,-7.597,-7.5974,-7.5976,0,0,0,0,0,0,0,-7.5895,-7.5909,-7.6056,-7.5976,-7.5968,-7.5927,-7.5928,-7.6031,-7.598,-7.5926,-7.5913,-7.5919,-7.5946,-7.5971,-7.5978,-7.6141,-7.5965,-7.5973,-7.5978,-7.5981,-7.6466,-7.6474,0,0,0,0,0,0,-7.5901,-7.5906,-7.6055,-7.6057,-7.5912,-7.5937,-7.5938,-7.5982,-7.5978,-7.5971,-7.5926,-7.5911,-7.5961,-7.5969,-7.5979,-7.6211,-7.5974,-7.5982,-7.5986,-7.6458,-7.6468,-7.6476,0,0,0,0,0,0,-7.5897,-7.5916,-7.6054,-7.5979,-7.5993,-7.5948,-7.5998,-7.5986,-7.6011,-7.5979,-7.5969,-7.5961,-7.5955,-7.5967,-7.6099,-7.621,-7.5985,-7.5993,-7.6449,-7.6461,-7.6472,-7.6677,0,0,0,0,0,0,-7.5892,-7.5916,-7.599,-7.5982,-7.5998,-7.6174,-7.6005,-7.5992,-7.6026,-7.6008,-7.6009,-7.6002,-7.595,-7.6088,-7.6108,-7.6217,-7.5999,-7.6439,-7.6454,-7.6468,-7.666,-7.6694,-7.6723,0,0,0,0,0,-7.5885,-7.6046,-7.5995,-7.6014,-7.609,-7.6181,-7.619,-7.6127,-7.6035,-7.611,-7.6089,-7.6002,-7.6195,-7.6103,-7.6123,-7.6237,-7.6431,-7.645,-7.6467,-7.6645,-7.6687,-7.6723,0,0,0,0,0,0,-7.6069,-7.6044,-7.5986,-7.6149,-7.6169,-7.6152,-7.6244,-7.6173,-7.6219,-7.62,-7.6121,-7.6123,-7.6269,-7.6266,-7.6164,-7.6429,-7.6297,-7.632,-7.6426,-7.6465,-7.6496,-7.6494,-7.6006,0,0,0,0,0,-7.6128,-7.6204,-7.6178,-7.6324,-7.6337,-7.629,-7.6327,-7.6277,-7.6294,-7.6301,-7.629,-7.631,-7.6375,-7.642,-7.6477,-7.6658,-7.6657,-7.6747,-7.6779,-7.6805,-7.6826,-7.6922,-7.6963,-7.6535,-7.6535,-7.6535,0,0,-7.6252,-7.6247,-7.63,-7.6361,-7.637,-7.6452,-7.6298,-7.6389,-7.6449,-7.6315,-7.6439,-7.6432,-7.645,-7.6608,-7.6676,-7.661,-7.6944,-7.6828,-7.6849,-7.6855,-7.6945,-7.6986,-7.7022,-7.6547,-7.6545,-7.6543,0,0,-7.6518,-7.6522,-7.6645,-7.6658,-7.6674,-7.6641,-7.6671,-7.6666,-7.6656,-7.6779,-7.6681,-7.6751,-7.6864,-7.6881,-7.6905,-7.718,-7.7102,-7.7201,-7.7367,-7.7462,-7.7496,-7.7526,-7.7625,-7.7661,-7.7222,-7.7222,-7.7223,0,-7.667,-7.6788,-7.6717,-7.6817,-7.6847,-7.673,-7.6854,-7.6869,-7.6904,-7.6928,-7.6853,-7.6993,-7.6997,-7.7157,-7.7225,-7.7247,-7.728,-7.72,-7.7497,-7.7526,-7.7552,-7.7646,-7.7683,-7.7234,-7.7233,-7.7232,-7.723,0,-7.6974,-7.7058,-7.7155,-7.7192,-7.7232,-7.7344,-7.7291,-7.7341,-7.7288,-7.7264,-7.7392,-7.7392,-7.7449,-7.7483,-7.7432,-7.7638,-7.7596,-7.751,-7.7376,-7.7606,-7.7693,-7.7728,-7.7251,-7.7247,-7.7244,-7.7241,0,0,-7.7356,-7.7353,-7.7391,-7.7406,-7.7416,-7.7479,-7.7586,-7.7641,-7.7687,-7.7715,-7.7803,-7.7902,-7.7823,-7.785,-7.78,-7.7884,-7.8103,-7.7788,-7.7787,-7.7847,-7.8331,-7.8396,-7.8439,-7.8052,-7.8058,-7.8063,-7.833,0,-7.7618,-7.78,-7.774,-7.7925,-7.8002,-7.7892,-7.7985,-7.8002,-7.7983,-7.8046,-7.8024,-7.8096,-7.7986,-7.8002,-7.808,-7.806,-7.82,-7.804,-7.8134,-7.8138,-7.8134,-7.8484,-7.8553,-7.8805,-7.8364,-7.8369,-7.8373,0,-7.7947,-7.7989,-7.8182,-7.818,-7.821,-7.8295,-7.8341,-7.8402,-7.8419,-7.8399,-7.8431,-7.8364,-7.8469,-7.8335,-7.8479,-7.8372,-7.8407,-7.8404,-7.8412,-7.8419,-7.827,-7.8501,-7.8883,-7.8922,-7.8426,-7.8422,-7.8418,0,-7.8209,-7.8313,-7.8442,-7.8459,-7.8459,-7.8521,-7.8525,-7.8534,-7.8572,-7.8613,-7.8636,-7.869,-7.8719,-7.8762,-7.8711,-7.8618,-7.8864,-7.8725,-7.8852,-7.8853,-7.8909,-7.8906,-7.9303,-7.8931,-7.893,-7.8929,-7.8929,0,-7.8507,-7.863,-7.8559,-7.8639,-7.8773,-7.8704,-7.8839,-7.883,-7.884,-7.8916,-7.8824,-7.8898,-7.8826,-7.8894,-7.8855,-7.8982,-7.8995,-7.8983,-7.8971,-7.8992,-7.8993,-7.9014,-7.8995,-7.8939,-7.8937,-7.8935,-7.8933,0,-7.8822,-7.8779,-7.8913,-7.8903,-7.8903,-7.9003,-7.8994,-7.9068,-7.9042,-7.914,-7.9159,-7.912,-7.9195,-7.9148,-7.9224,-7.9198,-7.9364,-7.9327,-7.9358,-7.9349,-7.9478,-7.9467,-7.9902,-7.9956,-7.9549,-7.9553,-7.9556,0,-7.9015,-7.9107,-7.9107,-7.9152,-7.9161,-7.9234,-7.9272,-7.9208,-7.9251,-7.9279,-7.935,-7.9417,-7.9467,-7.9592,-7.957,-7.9628,-7.9593,-7.9742,-7.9602,-7.962,-7.9597,-7.9593,-7.9602,-7.9771,-7.9775,-7.9779,-7.9782,0,-7.9364,-7.9339,-7.9397,-7.945,-7.9498,-7.9535,-7.9565,-7.9607,-7.9543,-7.9597,-7.9672,-7.9712,-7.9789,-7.9858,-7.9907,-7.991,-7.9838,-7.9827,-7.9859,-7.9881,-7.9896,-7.9891,-7.9436,-7.9817,-7.9814,-7.9811,-7.9809,-7.9808,-7.9625,-7.9701,-7.9714,-7.9783,-7.9799,-7.983,-7.9899,-7.9882,-7.9944,-8.0002,-7.9961,-8.0051,-8.0067,-8.0125,-8.0139,-8.0209,-8.0148,-8.0195,-8.0207,-8.022,-8.0238,-7.9885,-8.0217,-8.0216,-8.0215,-8.0214,-8.0213,0,-7.9969,-7.9972,-8.0036,-8.0082,-8.0136,-8.0062,-8.0092,-8.0142,-8.0223,-8.0243,-8.0295,-8.0383,-8.0449,-8.0433,-8.0493,-8.0552,-8.052,-8.057,-8.0566,-8.0568,-8.0288,-8.0254,-8.0595,-8.0595,-8.0595,-8.0595,-8.0595,-8.0595,-8.0155,-8.0282,-8.0259,-8.0393,-8.0395,-8.0482,-8.0506,-8.0534,-8.0551,-8.0653,-8.0708,-8.0697,-8.0704,-8.0763,-8.0821,-8.0815,-8.0842,-8.0905,-8.0886,-8.0625,-8.0588,-8.0552,-8.052,-8.0911,-8.0911,-8.116,-8.1163,-8.1164]},{"header":{"parameterUnit":"m.s-1","parameterCategory":1,"la1":30.2991,"la2":30.254,"lo1":-89.0895,"lo2":-89.0444,"dy":0.0017,"dx":0.0017,"nx":28,"ny":28,"refTime":"2024-06-20T09:00:00:Z","depth":0,"parameterNumber":3,"parameterNumberName":"V-component_of_WINDS"},"data":[0,0,0,0,0,0,0,0,0,0,0,0,0,0,0,0,0,0,0,0,0,0,0,0,0,0,0,0,0,0,0,0,0,0,0,0,0,0,0,0,0,0,0,0,0,0,0,0,0,0,0,0,0,0,0,0,0,0,-1.5564,-1.5564,0,-1.5528,-1.5527,-1.5527,-1.5479,-1.5478,-1.5477,-1.5477,-1.5441,-1.544,-1.544,0,0,0,0,0,0,0,0,0,0,0,0,0,-1.5591,-1.5591,-1.5564,-1.5564,-1.5563,-1.5528,-1.5527,-1.5527,-1.5479,-1.5478,-1.5477,-1.5476,-1.5441,-1.544,-1.544,0,0,0,0,0,0,0,0,0,0,0,0,0,-1.557,-1.5591,-1.5564,-1.5535,-1.5532,-1.5528,-1.5527,-1.5527,-1.5479,-1.5478,-1.5477,-1.5476,-1.5441,-1.544,-1.544,-1.5462,0,0,-1.5439,-1.5439,0,0,0,0,0,0,0,0,-1.5571,-1.5569,-1.554,-1.5537,-1.5534,-1.5507,-1.5524,-1.5505,-1.548,-1.5499,-1.5476,-1.5475,-1.5464,-1.5461,-1.5457,-1.546,-1.5459,-1.5439,-1.5439,-1.5439,-1.5439,0,0,0,0,0,0,0,-1.5572,-1.557,-1.555,-1.5539,-1.5536,-1.5523,-1.5519,-1.552,-1.5489,-1.5497,-1.5494,-1.549,-1.5462,-1.5458,-1.5456,-1.5458,-1.5439,-1.5439,-1.5439,-1.5439,-1.5476,-1.5477,0,0,0,0,0,0,-1.5578,-1.5571,-1.5551,-1.5549,-1.555,-1.5524,-1.5519,-1.5516,-1.5488,-1.5483,-1.5491,-1.5488,-1.5459,-1.5456,-1.5455,-1.5477,-1.5439,-1.5438,-1.5438,-1.5474,-1.5476,-1.5477,0,0,0,0,0,0,-1.5579,-1.5577,-1.5552,-1.5559,-1.5555,-1.5525,-1.5522,-1.5516,-1.5512,-1.5484,-1.5478,-1.5493,-1.5458,-1.5455,-1.546,-1.5476,-1.5438,-1.5438,-1.5473,-1.5475,-1.5476,-1.5524,0,0,0,0,0,0,-1.558,-1.5577,-1.5586,-1.556,-1.5555,-1.5559,-1.5523,-1.5517,-1.5512,-1.5507,-1.5484,-1.5479,-1.5457,-1.5461,-1.546,-1.5474,-1.5438,-1.5472,-1.5474,-1.5476,-1.5521,-1.5527,-1.5533,0,0,0,0,0,-1.5581,-1.5601,-1.5587,-1.5584,-1.5565,-1.556,-1.5557,-1.5531,-1.5513,-1.5521,-1.5502,-1.5479,-1.5474,-1.5462,-1.546,-1.5475,-1.547,-1.5473,-1.5476,-1.5518,-1.5526,-1.5533,0,0,0,0,0,0,-1.5631,-1.5597,-1.5581,-1.5593,-1.5579,-1.5552,-1.5561,-1.554,-1.5532,-1.5528,-1.5496,-1.5491,-1.55,-1.5488,-1.5475,-1.5494,-1.5469,-1.5471,-1.5502,-1.5509,-1.5514,-1.5517,-1.5438,0,0,0,0,0,-1.5644,-1.5642,-1.5613,-1.5627,-1.562,-1.5592,-1.5589,-1.557,-1.5555,-1.5549,-1.5531,-1.5517,-1.5512,-1.5509,-1.5503,-1.5518,-1.5512,-1.5528,-1.5534,-1.5538,-1.5541,-1.5547,-1.5553,-1.5486,-1.5486,-1.5486,0,0,-1.5669,-1.5651,-1.5652,-1.5636,-1.5623,-1.5623,-1.5588,-1.5589,-1.5588,-1.5549,-1.5553,-1.5538,-1.5521,-1.5531,-1.5534,-1.5521,-1.5558,-1.5542,-1.5546,-1.5546,-1.5551,-1.5557,-1.5563,-1.5488,-1.5487,-1.5487,0,0,-1.5716,-1.5702,-1.5711,-1.5699,-1.5679,-1.566,-1.5662,-1.5637,-1.5626,-1.5628,-1.5599,-1.5597,-1.5589,-1.5577,-1.5571,-1.561,-1.5588,-1.5609,-1.564,-1.5646,-1.5651,-1.5656,-1.5669,-1.5675,-1.5612,-1.5612,-1.5612,0,-1.5751,-1.5749,-1.5719,-1.5721,-1.5715,-1.5678,-1.5687,-1.5676,-1.5656,-1.5652,-1.5637,-1.5625,-1.5611,-1.5617,-1.5627,-1.5622,-1.5623,-1.5612,-1.5653,-1.5657,-1.5661,-1.5674,-1.5679,-1.5614,-1.5614,-1.5614,-1.5613,0,-1.5792,-1.5791,-1.58,-1.5781,-1.5775,-1.5781,-1.5751,-1.5749,-1.5729,-1.5711,-1.5714,-1.5695,-1.5683,-1.5683,-1.5665,-1.5686,-1.5678,-1.5659,-1.5633,-1.567,-1.5682,-1.5686,-1.5618,-1.5617,-1.5616,-1.5616,0,0,-1.5872,-1.5834,-1.5838,-1.5828,-1.5803,-1.5801,-1.5804,-1.5792,-1.5791,-1.5777,-1.5779,-1.5772,-1.5753,-1.5745,-1.5724,-1.5729,-1.5761,-1.5709,-1.5708,-1.5719,-1.5783,-1.5798,-1.5804,-1.5746,-1.5747,-1.5747,-1.5784,0,-1.5914,-1.5917,-1.5889,-1.59,-1.5898,-1.5862,-1.5865,-1.5849,-1.5832,-1.5827,-1.5807,-1.5803,-1.5778,-1.5773,-1.5776,-1.5757,-1.5773,-1.5753,-1.5747,-1.5747,-1.5753,-1.581,-1.5827,-1.5863,-1.5788,-1.5789,-1.579,0,-1.5964,-1.5953,-1.5963,-1.5936,-1.5934,-1.5937,-1.5922,-1.5918,-1.5899,-1.5886,-1.5876,-1.5852,-1.5852,-1.5827,-1.5827,-1.5814,-1.5809,-1.5799,-1.58,-1.5799,-1.5771,-1.5811,-1.5874,-1.5879,-1.5796,-1.5796,-1.5795,0,-1.6021,-1.6008,-1.6012,-1.6005,-1.5973,-1.5975,-1.5962,-1.5942,-1.5936,-1.5923,-1.5919,-1.5907,-1.5901,-1.5892,-1.5864,-1.5848,-1.5867,-1.584,-1.5856,-1.5857,-1.5863,-1.5863,-1.5926,-1.5859,-1.5859,-1.5859,-1.5859,0,-1.6072,-1.608,-1.6037,-1.604,-1.6047,-1.6014,-1.6022,-1.6005,-1.5987,-1.5985,-1.5953,-1.5952,-1.5916,-1.5911,-1.589,-1.5892,-1.589,-1.5879,-1.5873,-1.5882,-1.5884,-1.5879,-1.5876,-1.586,-1.586,-1.586,-1.5859,0,-1.6137,-1.6109,-1.6111,-1.608,-1.6072,-1.6079,-1.6052,-1.6052,-1.6032,-1.603,-1.6028,-1.5996,-1.5988,-1.5959,-1.5945,-1.593,-1.594,-1.5929,-1.5946,-1.5943,-1.596,-1.5959,-1.6023,-1.603,-1.5959,-1.596,-1.596,0,-1.6172,-1.6177,-1.6145,-1.6142,-1.613,-1.6124,-1.6117,-1.6084,-1.6078,-1.6056,-1.6059,-1.6048,-1.6038,-1.6027,-1.6002,-1.5991,-1.5979,-1.6002,-1.5977,-1.5985,-1.5979,-1.598,-1.598,-1.6008,-1.6009,-1.601,-1.601,0,-1.6236,-1.6221,-1.6213,-1.6198,-1.6191,-1.6178,-1.6164,-1.6163,-1.6126,-1.612,-1.6111,-1.6103,-1.6087,-1.6077,-1.606,-1.6046,-1.6022,-1.6018,-1.6021,-1.6031,-1.6041,-1.6035,-1.5961,-1.6017,-1.6017,-1.6016,-1.6016,-1.6015,-1.6287,-1.6289,-1.6267,-1.6258,-1.6243,-1.623,-1.6229,-1.6207,-1.6199,-1.6183,-1.6163,-1.6156,-1.6135,-1.6111,-1.6098,-1.6092,-1.6079,-1.6084,-1.6085,-1.6087,-1.6091,-1.6041,-1.6089,-1.6089,-1.6089,-1.6088,-1.6088,0,-1.635,-1.6333,-1.6325,-1.6305,-1.6297,-1.6274,-1.6256,-1.6251,-1.6245,-1.6227,-1.6217,-1.6206,-1.6195,-1.6168,-1.6155,-1.6155,-1.6143,-1.6152,-1.6153,-1.6149,-1.6104,-1.6102,-1.6162,-1.6162,-1.6162,-1.6162,-1.6162,-1.6162,-1.6382,-1.6384,-1.6366,-1.6359,-1.6342,-1.6335,-1.6327,-1.6314,-1.6299,-1.6288,-1.6278,-1.626,-1.6239,-1.6223,-1.6211,-1.6204,-1.62,-1.6213,-1.6202,-1.616,-1.6153,-1.6146,-1.6145,-1.6213,-1.6213,-1.6248,-1.6249,-1.6249]}]]